#timestamp,LO_Frequency,Hit 
1499162415.2,286036050.8,N
1499162435.0,286036054.3,N
1499162435.9,286036054.3,N
1499162455.8,286036055.2,N
1499162475.6,286036055.0,N
1499162495.4,286036055.1,N
1499162515.3,286036055.0,N
1499162535.1,286036055.2,N
1499162555.8,286036055.4,N
1499162575.7,286036055.0,N
1499162595.5,286036053.5,N
1499162615.4,286036052.4,N
1499162635.2,286036054.0,N
1499162655.0,286036056.0,N
1499162655.9,286036056.0,N
1499162675.8,286036054.1,N
1499162695.6,286036050.8,N
1499162715.4,286036051.2,N
1499162735.3,286036053.1,N
1499162755.1,286036055.4,N
1499162775.9,286036054.0,N
1499162795.7,286036052.9,N
1499162815.5,286036052.7,N
1499162835.4,286036050.8,N
1499162855.2,286036050.9,N
1499162875.0,286036053.6,N
1499162875.9,286036053.6,N
1499162895.8,286036053.8,N
1499162915.6,286036051.9,N
1499162935.5,286036050.0,N
1499162955.3,286036052.3,N
1499162975.1,286036051.4,N
1499162995.9,286036051.6,N
1499163015.7,286036049.2,N
1499163035.5,286036049.6,N
1499163055.4,286036050.6,N
1499163075.2,286036047.6,N
1499163095.1,286036050.6,N
1499163096.0,286036050.6,N
1499163115.8,286036047.7,N
1499163135.6,286036047.8,N
1499163155.5,286036047.8,N
1499163175.3,286036048.8,N
1499163195.1,286036048.3,N
1499163215.9,286036046.3,N
1499163235.7,286036046.2,N
1499163255.6,286036046.2,N
1499163275.4,286036046.3,N
1499163295.2,286036047.0,N
1499163315.1,286036046.2,N
1499163316.0,286036046.2,N
1499163335.8,286036046.3,N
1499163355.6,286036047.4,N
1499163375.5,286036047.5,N
1499163395.3,286036043.1,N
1499163415.2,286036042.8,N
1499163435.9,286036043.4,N
1499163455.7,286036043.1,N
1499163475.6,286036042.9,N
1499163495.4,286036044.3,N
1499163515.2,286036044.3,N
1499163535.1,286036044.2,N
1499163536.0,286036044.2,N
1499163555.8,286036039.8,N
1499163575.7,286036042.6,N
1499163595.5,286036040.1,N
1499163615.3,286036040.9,N
1499163635.2,286036040.9,N
1499163655.0,286036040.7,N
1499163655.9,286036040.7,N
1499163675.8,286036038.5,N
1499163695.6,286036038.9,N
1499163715.4,286036036.6,N
1499163735.3,286036036.5,N
1499163755.1,286036039.2,N
1499163775.9,286036039.4,N
1499163795.7,286036036.5,N
1499163815.5,286036036.9,N
1499163835.4,286036039.5,N
1499163855.2,286036037.3,N
1499163875.0,286036037.2,N
1499163875.9,286036037.2,N
1499163895.8,286036037.1,N
1499163915.6,286036037.7,N
1499163935.5,286036034.9,N
1499163955.3,286036037.6,N
1499163975.1,286036034.8,N
1499163995.9,286036035.1,N
1499164015.7,286036035.0,N
1499164035.6,286036037.5,N
1499164055.4,286036035.0,N
1499164075.2,286036035.4,N
1499164095.1,286036036.1,N
1499164096.0,286036036.1,N
1499164115.8,286036036.3,N
1499164135.6,286036035.9,N
1499164155.5,286036033.7,N
1499164175.3,286036036.3,N
1499164195.2,286036036.2,N
1499164215.9,286036036.1,N
1499164235.7,286036035.9,N
1499164255.6,286036035.3,N
1499164275.4,286036037.8,N
1499164295.2,286036036.0,N
1499164315.1,286036032.7,N
1499164316.0,286036032.7,N
1499164335.8,286036034.0,N
1499164355.7,286036034.0,N
1499164375.5,286036033.8,N
1499164395.3,286036034.6,N
1499164415.2,286036034.6,N
1499164435.0,286036032.0,N
1499164435.9,286036032.0,N
1499164455.7,286036032.0,N
1499164475.6,286036034.2,N
1499164495.4,286036032.9,Y
1499164515.3,286046985.5,N
1499164535.1,286046984.7,N
1499164555.8,286046985.6,N
1499164575.7,286046986.2,N
1499164595.5,286046986.4,N
1499164615.4,286046985.8,N
1499164635.2,286046988.4,N
1499164655.0,286046986.3,N
1499164655.9,286046986.3,N
1499164675.8,286046984.2,N
1499164695.6,286046986.3,N
1499164715.4,286046986.8,N
1499164735.3,286046982.1,N
1499164755.1,286046985.2,N
1499164775.9,286046985.2,N
1499164795.7,286046985.2,N
1499164815.5,286046982.2,N
1499164835.4,286046982.3,N
1499164855.2,286046983.2,N
1499164875.0,286046983.1,N
1499164875.9,286046983.1,N
1499164895.8,286046983.1,N
1499164915.6,286046983.3,N
1499164935.5,286046981.9,N
1499164955.3,286046981.7,N
1499164975.1,286046981.4,N
1499164995.9,286046979.0,N
1499165015.7,286046981.5,N
1499165035.5,286046979.4,N
1499165055.4,286046980.4,N
1499165075.2,286046980.2,N
1499165095.1,286046981.7,N
1499165096.0,286046981.7,N
1499165115.8,286046981.5,N
1499165135.6,286046979.0,N
1499165155.5,286046981.5,N
1499165175.3,286046981.3,N
1499165195.1,286046979.3,N
1499165215.9,286046980.8,N
1499165235.7,286046980.1,N
1499165255.6,286046980.0,N
1499165275.4,286046980.1,N
1499165295.2,286046979.3,N
1499165315.1,286046980.1,N
1499165316.0,286044061.6,N
1499165335.8,286046979.4,N
1499165355.7,286046982.0,N
1499165375.5,286046979.3,N
1499165395.3,286046979.5,N
1499165415.2,286046977.3,N
1499165435.9,286046979.8,N
1499165455.7,286046981.8,N
1499165475.6,286046980.6,N
1499165495.4,286046981.8,N
1499165515.3,286046979.8,N
1499165535.1,286046981.7,N
1499165555.8,286046979.6,N
1499165575.7,286046977.8,N
1499165595.5,286046979.7,N
1499165615.4,286046980.4,N
1499165635.2,286046979.9,N
1499165655.0,286046980.0,N
1499165655.9,286046980.0,N
1499165675.8,286046980.2,N
1499165695.6,286046978.2,N
1499165715.4,286046980.4,N
1499165735.3,286046981.8,N
1499165755.1,286046981.7,N
1499165775.9,286046979.0,N
1499165795.7,286046978.5,N
1499165815.5,286046974.5,N
1499165835.4,286046975.2,N
1499165855.2,286046975.4,N
1499165875.1,286046972.5,N
1499165876.0,286046972.5,N
1499165895.8,286046972.8,N
1499165915.6,286046973.3,N
1499165935.5,286046971.1,N
1499165955.3,286046971.2,N
1499165975.1,286046971.0,N
1499165995.9,286046971.1,N
